Location: Coopersdale
(40.3556°N, 78.9372°W)
Time: 09:43:47
(UTC+00:00)

Vanguard 1 - Pass Details

Date: 27 January 2021
Orbit: 649 x 3834 km, 34.2° (Epoch: 07 March)

Event Time Altitude Azimuth Distance (km) Brightness Sun altitude
Rises 00:17:57 0° 285° (WNW) 7,929 15.9 -21.1°
Reaches altitude 10° 00:24:06 10° 279° (W) 6,943 15.4 -22.3°
Maximum altitude 00:43:07 35° 224° (SW) 4,555 13.7 -25.9°
Drops below altitude 10° 00:57:14 10° 165° (SSE) 5,147 13.6 -28.5°
Sets 01:01:01 0° 156° (SSE) 5,747 13.8 -29.3°
